RH
42 40 46 44 55 79 67 56 20 8 6 6 7 7 6 6 6 5 5 6 5 6 6 7 8 8 9 9 11 13 14 14 14 14 13 12 12 10 9 9 10 12 14 15
43 46 42 41 62 70 72 59 25 8 7 7 8 7 6 5 5 6 7 8 8 8 7 6 6 7 8 9 10 10 11 13 14 14 15 15 15 13 11 10 10 10 12 13
44 47 40 49 66 72 70 58 38 8 7 7 8 7 6 6 7 8 8 9 10 10 10 9 9 9 8 8 9 10 10 11 11 12 14 15 16 15 13 12 11 11 11 12
42 48 40 44 60 70 68 64 42 8 7 7 9 8 7 7 9 9 10 10 10 10 11 11 11 10 10 10 10 9 9 10 11 11 12 14 15 15 14 14 13 12 13 13
42 50 40 47 64 66 85 73 53 14 8 8 8 9 7 8 9 10 11 11 11 11 11 11 12 13 12 11 11 10 10 11 10 10 12 12 15 16 15 15 15 14 14 14
44 48 40 47 72 75 77 70 61 35 9 8 8 10 9 8 10 12 13 14 13 13 12 12 12 13 14 13 12 11 11 10 10 10 10 12 13 16 16 15 15 15 16 15
47 49 41 48 75 73 72 80 57 55 14 9 9 9 11 9 11 14 14 15 16 16 18 17 15 14 13 15 16 14 12 11 10 10 11 11 13 14 17 17 16 16 16 17
50 50 44 48 77 78 86 78 65 64 24 10 10 10 12 12 11 14 16 15 14 15 18 20 23 22 20 17 16 17 18 15 13 12 12 12 13 15 16 18 18 18 18 18
50 52 46 51 81 82 93 94 74 72 51 12 11 11 11 14 13 15 19 18 18 17 18 21 22 23 23 26 27 24 20 18 20 18 16 15 15 16 16 16 19 21 21 20
53 52 56 61 84 92 100 95 88 77 69 17 12 13 13 14 16 16 20 23 23 25 26 27 26 30 33 33 34 33 33 32 28 23 21 21 19 17 16 17 17 18 20 21
55 52 62 67 85 97 100 100 95 79 68 31 13 14 15 14 18 18 19 26 27 27 31 34 34 34 36 38 38 37 36 35 33 32 31 29 25 23 22 19 18 16 17 17
57 52 73 77 86 89 100 100 100 87 76 59 14 14 16 17 17 21 20 25 31 31 33 38 41 41 43 45 44 44 40 41 40 36 32 31 30 29 28 23 20 19 16 16
59 58 80 86 83 89 100 100 100 100 84 69 16 14 16 19 18 22 23 24 32 35 35 37 41 41 40 42 45 44 41 38 37 35 34 33 30 28 23 21 23 24 20 14
64 66 83 84 81 92 100 100 100 100 93 78 22 14 16 18 18 18 25 25 28 36 38 37 41 43 42 43 44 43 45 46 42 44 37 29 23 24 26 22 18 17 15 16
67 76 81 79 79 96 100 100 100 100 100 82 24 14 15 18 19 18 23 26 28 34 40 42 43 42 41 42 41 36 35 38 37 35 31 25 20 14 10 12 14 14 15 15
68 79 87 84 84 98 100 100 100 100 100 98 24 16 15 17 19 18 19 26 27 31 38 43 44 38 39 38 38 43 47 46 46 48 44 33 27 20 16 15 12 10 9 9
69 85 89 83 84 100 100 100 100 100 100 95 37 16 15 17 18 18 17 24 27 28 33 41 44 40 45 46 48 53 54 44 35 31 34 25 19 16 14 13 11 9 7 6
73 94 83 92 88 100 100 100 100 100 100 98 46 17 15 17 17 18 16 20 28 29 30 40 45 43 46 49 51 55 51 53 39 30 21 17 15 12 11 10 9 7 6 6
84 90 83 90 100 100 100 100 100 100 100 97 46 17 15 17 17 17 16 17 27 28 29 36 44 42 48 50 57 55 50 40 31 26 21 17 15 12 9 8 6 6 5 5
82 90 81 100 99 100 100 100 100 100 100 99 42 18 15 16 17 17 16 16 26 27 30 36 45 46 48 52 53 42 36 28 24 22 20 18 14 12 10 7 6 6 5 4
92 86 92 100 99 100 100 100 100 98 100 100 40 15 15 16 16 16 16 15 24 27 30 36 43 48 50 48 44 35 34 26 22 18 15 14 12 10 9 7 6 5 4 4
86 96 97 100 100 100 100 100 100 95 99 98 39 16 15 16 14 15 15 14 22 27 29 31 44 47 52 48 43 38 38 28 22 19 16 14 11 9 7 6 5 5 4 4
89 89 100 98 100 100 100 100 100 100 98 94 42 14 14 15 12 14 14 14 22 26 26 33 42 44 49 49 46 42 40 27 21 19 16 14 12 9 8 6 6 5 5 4
85 95 100 100 94 99 100 100 100 100 100 84 27 15 14 13 12 13 13 14 22 26 28 33 41 45 56 51 47 48 42 30 23 19 17 15 12 10 8 7 6 5 4 4
87 100 100 92 97 100 100 100 100 100 88 77 19 14 14 12 11 12 13 14 21 25 26 31 40 46 54 45 43 46 43 32 23 20 18 16 13 11 9 6 5 5 4 4
98 100 100 95 100 100 100 100 100 97 89 54 21 14 14 12 11 11 12 14 20 24 26 30 38 43 48 39 42 48 46 32 23 20 18 16 14 11 10 8 6 6 5 4
97 98 98 100 100 100 100 100 100 80 88 55 20 14 14 11 11 12 13 15 21 23 25 29 38 43 44 39 44 51 46 32 24 20 18 16 14 12 10 8 6 5 5 4
Wind_Speed
96 99 103 109 114 123 130 132 109 91 79 73 65 56 51 47 43 40 37 34 32 30 31 31 32 32 32 31 32 34 35 38 39 40 42 44 45 48 50 51 51 54 56 61
99 104 108 113 119 127 136 131 118 96 86 78 68 59 54 49 45 41 37 34 31 29 28 27 26 26 27 28 28 29 30 32 35 36 38 40 42 44 47 48 50 51 55 59
104 108 112 116 123 129 134 135 124 96 85 77 69 62 58 52 48 43 38 35 31 28 26 24 24 22 22 22 23 25 28 30 31 32 33 35 38 41 43 45 47 49 52 58
106 111 114 117 125 131 137 143 128 100 90 83 74 63 60 56 51 46 40 36 33 29 26 23 22 20 20 19 19 20 22 24 28 30 30 31 34 37 40 42 44 47 50 56
108 113 117 119 126 135 138 144 138 108 97 89 79 70 65 58 52 46 41 37 33 30 27 24 21 20 18 18 17 17 19 20 23 26 29 28 30 33 35 38 41 44 48 52
109 113 119 121 127 137 141 143 144 123 105 94 84 75 68 62 56 48 42 37 34 30 27 25 23 21 18 16 15 14 15 17 19 23 26 27 27 28 31 36 38 42 46 50
111 115 120 122 128 136 144 146 146 129 111 97 86 78 70 65 59 51 45 39 34 31 29 26 23 21 19 17 15 14 12 13 14 17 21 25 27 26 28 32 36 40 43 48
113 115 120 122 129 136 142 148 150 133 115 103 94 82 76 69 63 57 49 44 39 35 30 26 23 21 19 17 16 15 13 11 11 12 14 19 23 26 27 28 32 37 41 45
111 115 119 123 128 135 139 146 151 142 126 110 99 86 76 70 65 59 54 50 45 40 37 34 32 30 27 23 21 19 18 15 13 11 12 14 18 23 27 29 31 34 38 42
110 115 119 121 128 133 137 143 148 146 129 113 101 93 80 73 66 60 55 51 46 41 37 33 32 30 27 25 23 21 18 16 16 15 14 14 16 19 24 29 33 36 38 42
110 115 119 121 126 132 136 142 145 147 133 116 104 97 83 73 68 62 56 52 48 43 40 37 34 31 29 28 26 25 23 21 18 16 16 17 19 21 23 27 31 36 41 44
109 114 116 119 124 130 135 141 145 147 139 121 107 97 87 76 68 63 57 51 48 44 41 39 37 35 31 30 29 29 27 25 25 24 22 21 21 22 26 30 32 36 40 44
108 113 115 118 123 128 133 139 143 143 142 123 109 99 90 78 68 63 58 52 47 44 42 40 39 37 35 33 33 32 31 31 30 28 25 26 27 30 30 29 33 37 43 46
108 112 114 118 122 128 133 138 141 143 141 127 110 100 92 80 70 62 58 53 48 44 42 41 40 38 38 37 36 35 34 35 35 36 37 38 34 32 34 39 37 37 38 42
107 111 115 118 122 127 131 137 141 142 142 127 113 106 95 84 73 63 57 54 48 45 42 41 41 38 38 37 36 37 38 39 40 42 43 43 45 44 36 33 34 36 37 43
108 111 115 118 123 126 129 134 139 140 142 127 115 108 100 88 75 65 57 54 50 45 43 42 41 40 40 40 42 45 46 44 42 43 48 50 49 49 49 48 45 40 35 36
107 110 113 117 121 124 128 133 137 140 142 128 115 107 101 90 78 68 58 54 52 48 43 42 42 44 45 46 45 47 48 49 49 46 44 47 47 46 46 45 44 44 43 39
106 110 115 117 121 124 127 132 136 140 139 128 115 107 100 92 82 70 60 55 52 51 46 44 44 44 45 47 46 47 47 52 54 53 53 48 46 41 40 39 40 42 41 41
106 111 115 117 119 125 131 130 134 140 140 130 117 106 101 93 83 72 62 56 53 51 48 44 44 46 47 48 49 50 49 48 48 51 52 52 51 48 44 42 40 38 36 34
107 111 113 115 117 123 132 130 132 139 139 133 116 107 102 93 83 73 62 56 53 52 48 46 46 47 48 48 47 48 50 51 51 52 52 54 53 48 45 45 43 41 38 34
106 109 111 114 120 124 130 131 138 140 139 132 116 107 100 94 83 74 64 56 53 52 50 46 45 46 48 49 50 53 55 56 56 53 50 48 45 45 46 45 40 36 34 33
106 108 111 115 121 125 128 133 140 142 140 130 114 107 100 92 82 73 64 57 54 51 50 47 46 47 48 50 53 55 57 58 57 56 55 53 50 46 44 43 39 36 33 32
106 109 111 116 120 127 132 137 140 145 141 128 115 106 98 89 81 72 64 57 53 52 51 47 46 47 48 51 54 56 57 58 59 58 56 55 53 49 48 46 42 39 35 32
106 109 113 118 124 127 133 136 139 144 140 128 113 105 98 88 80 71 63 56 53 51 49 45 46 47 49 51 53 55 59 61 60 59 58 57 55 51 50 46 41 37 33 31
107 111 116 121 126 129 133 139 139 145 135 126 112 105 97 87 78 70 62 57 53 51 50 46 46 46 47 50 54 57 60 62 60 59 59 58 56 53 51 47 43 39 35 32
106 112 117 123 128 131 135 138 139 143 134 123 111 103 94 85 76 69 61 57 53 51 49 46 45 45 47 50 53 57 59 60 60 59 60 58 57 53 51 50 43 38 35 33
110 115 120 126 130 133 135 139 144 139 133 121 112 102 93 82 73 67 60 56 52 50 47 45 44 45 47 50 52 56 59 60 60 59 60 59 56 54 51 50 47 41 37 34
Wind_Direction
351 352 353 351 355 0 1 356 357 354 353 351 349 347 346 345 341 336 330 325 318 311 304 298 293 288 285 281 277 272 267 265 261 257 255 253 250 248 246 242 239 236 233 231
353 355 354 354 1 3 2 0 0 358 359 358 354 353 353 353 350 345 340 334 328 321 316 311 305 298 289 282 277 274 270 266 263 260 255 252 250 247 245 243 239 235 232 230
354 356 354 356 3 4 4 4 3 2 2 1 359 359 358 358 356 352 349 345 340 334 327 321 313 306 298 289 281 274 269 266 264 262 258 253 250 248 244 242 238 235 231 230
355 355 354 357 3 5 5 4 5 4 5 6 4 2 3 2 359 356 354 353 349 346 342 335 326 317 306 297 290 281 273 267 263 260 258 255 250 246 242 240 237 234 230 229
354 355 355 358 4 6 5 5 6 7 7 7 6 6 7 5 3 359 357 355 353 352 350 345 340 333 325 311 298 286 277 271 265 259 254 252 252 247 242 239 236 233 230 227
354 354 357 0 3 5 5 6 7 8 7 8 8 7 8 7 6 4 2 0 360 357 356 354 352 347 341 331 320 305 289 280 273 264 257 250 249 248 244 240 236 233 232 229
354 354 357 1 4 5 6 7 6 8 8 8 9 8 9 10 8 7 6 6 6 4 2 2 359 356 353 348 342 332 317 297 281 269 260 254 248 248 247 243 240 237 234 233
352 354 357 1 4 5 6 7 6 7 7 7 8 9 10 9 9 9 9 9 9 9 7 5 4 2 356 355 351 348 341 328 307 288 270 260 254 249 249 248 244 241 238 236
352 355 358 2 4 4 5 6 6 6 7 6 7 8 9 9 10 9 9 10 11 11 11 9 6 5 3 360 357 351 345 338 325 313 292 271 260 254 251 248 246 244 243 242
353 355 359 2 3 3 3 4 6 5 5 5 6 7 7 8 8 9 9 11 12 12 13 12 10 9 8 5 1 358 348 338 328 318 306 291 276 265 256 252 250 248 245 243
353 356 359 1 3 3 3 3 5 4 5 5 5 6 6 6 6 7 8 9 10 12 13 13 12 10 9 8 6 5 359 351 342 327 314 298 288 279 269 261 255 251 249 247
352 356 358 360 1 2 2 2 4 4 5 4 4 5 5 4 3 4 4 7 7 8 9 9 7 5 5 6 5 2 358 355 351 343 333 321 304 289 278 270 264 260 254 250
352 356 357 358 360 1 2 1 2 3 3 1 3 3 4 3 1 1 1 3 4 4 4 3 1 359 359 0 1 358 354 350 347 340 334 326 318 310 299 286 274 266 263 259
351 355 357 357 358 360 1 0 1 2 2 1 1 1 2 1 0 359 359 359 0 1 1 1 358 354 355 356 356 353 351 349 345 340 332 325 319 311 304 299 293 286 275 266
351 354 356 356 358 359 360 359 359 0 1 0 359 359 360 359 359 358 356 356 357 357 357 357 355 352 352 352 351 350 351 347 343 339 334 329 325 322 317 304 295 287 281 278
352 353 354 355 357 358 359 358 359 359 359 359 358 358 358 357 357 356 355 354 354 355 355 354 352 351 354 353 352 353 348 342 338 335 332 327 323 319 317 313 310 302 291 281
351 352 353 354 356 357 358 358 359 359 358 357 357 357 356 356 354 354 353 353 352 352 353 352 350 353 354 353 352 349 345 339 336 336 333 326 322 318 316 311 306 302 300 293
350 351 352 354 355 356 356 356 357 357 358 356 356 356 355 354 353 352 352 352 351 349 349 351 349 350 353 352 349 347 345 341 337 337 334 331 326 324 318 313 308 304 300 297
349 350 352 353 355 356 356 355 355 356 357 355 355 355 354 354 352 350 350 351 349 348 346 349 348 349 351 350 347 345 344 340 339 339 337 334 333 330 326 322 318 312 308 302
348 349 351 351 353 355 356 356 354 355 356 356 354 353 354 352 351 349 349 349 348 347 346 347 348 347 349 347 343 341 343 345 347 346 343 340 337 334 331 328 325 320 315 309
347 347 350 350 352 353 354 354 355 355 356 355 353 353 352 351 350 348 347 348 348 348 346 346 345 347 346 345 344 344 347 349 348 346 346 344 341 338 335 332 328 323 318 314
345 345 349 348 350 352 352 353 354 354 355 354 353 352 351 350 349 348 346 347 347 347 344 344 346 346 345 345 346 346 349 350 349 350 349 348 347 344 341 337 334 332 328 323
344 346 346 348 348 350 351 352 352 354 353 354 351 352 351 349 348 347 345 346 346 345 345 345 344 344 346 347 347 347 349 352 352 352 352 352 350 348 347 344 341 338 333 329
344 344 344 345 347 348 349 351 350 352 352 350 352 350 350 348 347 347 344 345 345 345 344 344 344 345 345 346 347 348 352 354 354 353 354 354 353 352 352 348 343 339 337 334
342 344 345 344 347 346 347 349 348 351 349 352 350 350 349 348 347 346 344 345 345 344 344 344 345 346 344 346 348 351 354 354 354 355 356 356 356 355 352 351 347 346 346 343
341 341 342 343 345 345 346 348 347 348 347 350 350 349 348 347 346 346 344 344 345 344 343 342 344 344 343 347 351 353 354 354 355 356 358 358 358 357 356 354 352 349 347 347
338 339 340 341 344 344 344 346 346 345 347 349 348 348 347 346 345 346 345 343 343 343 341 341 344 344 345 350 352 353 353 355 356 357 359 359 359 359 358 359 356 354 352 351